TimeEDT,TemperatureF,Dew PointF,Humidity,Sea Level PressureIn,VisibilityMPH,Wind Direction,Wind SpeedMPH,Gust SpeedMPH,PrecipitationIn,Events,Conditions,WindDirDegrees,DateUTC
12:02 AM,62.6,59.0,88,29.85,6.0,SW,11.5,18.4,N/A,,Overcast,220,2012-10-14 04:02:00
12:30 AM,62.6,60.8,94,29.85,6.0,SW,10.4,19.6,N/A,,Overcast,220,2012-10-14 04:30:00
1:04 AM,64.4,60.8,88,29.84,5.0,SW,10.4,-,N/A,,Overcast,220,2012-10-14 05:04:00
1:29 AM,64.4,60.8,88,29.83,5.0,SSW,8.1,-,N/A,,Overcast,210,2012-10-14 05:29:00
1:37 AM,64.4,60.8,88,29.83,5.0,SW,10.4,-,N/A,,Overcast,220,2012-10-14 05:37:00
1:53 AM,64.0,61.0,90,29.83,4.0,SSW,10.4,-,0.00,Rain,Light Rain,210,2012-10-14 05:53:00
2:05 AM,64.4,60.8,88,29.83,5.0,SW,9.2,-,0.01,,Overcast,220,2012-10-14 06:05:00
2:27 AM,64.4,62.6,94,29.83,5.0,SW,8.1,-,0.01,,Overcast,220,2012-10-14 06:27:00
2:34 AM,64.4,62.6,94,29.83,4.0,SW,6.9,-,0.01,Rain,Light Rain,220,2012-10-14 06:34:00
2:42 AM,64.4,62.6,94,29.83,4.0,SW,8.1,-,0.01,Rain,Light Rain,220,2012-10-14 06:42:00
2:53 AM,64.0,62.1,93,29.83,3.0,SW,5.8,-,0.03,Rain,Light Rain,220,2012-10-14 06:53:00
3:24 AM,64.4,62.6,94,29.82,4.0,SSW,9.2,-,0.01,Rain,Light Rain,200,2012-10-14 07:24:00
3:40 AM,64.4,62.6,94,29.82,3.0,SSW,8.1,-,0.02,Rain,Light Rain,200,2012-10-14 07:40:00
3:48 AM,64.4,62.6,94,29.82,4.0,SSW,8.1,-,0.02,Rain,Light Rain,210,2012-10-14 07:48:00
3:53 AM,64.0,62.1,93,29.82,4.0,SSW,8.1,-,0.02,,Overcast,210,2012-10-14 07:53:00
4:40 AM,64.4,60.8,88,29.81,5.0,SSW,8.1,-,0.01,,Mostly Cloudy,210,2012-10-14 08:40:00
4:53 AM,64.0,61.0,90,29.81,5.0,SSW,8.1,-,0.01,,Mostly Cloudy,200,2012-10-14 08:53:00
5:04 AM,64.4,60.8,88,29.81,5.0,South,6.9,-,N/A,,Mostly Cloudy,190,2012-10-14 09:04:00
5:53 AM,64.0,61.0,90,29.81,4.0,SSW,6.9,-,0.01,Rain,Light Rain,200,2012-10-14 09:53:00
6:01 AM,64.4,60.8,88,29.81,4.0,SSW,6.9,-,0.00,Rain,Light Rain,200,2012-10-14 10:01:00
6:53 AM,64.0,61.0,90,29.80,4.0,SSW,6.9,-,0.02,Rain,Light Rain,200,2012-10-14 10:53:00
7:53 AM,64.0,61.0,90,29.78,4.0,South,6.9,-,0.03,Rain,Light Rain,180,2012-10-14 11:53:00
8:53 AM,64.9,62.1,90,29.75,4.0,South,10.4,-,0.02,,Overcast,180,2012-10-14 12:53:00
9:22 AM,64.4,62.6,94,29.75,4.0,South,12.7,-,N/A,,Mostly Cloudy,180,2012-10-14 13:22:00
9:53 AM,66.0,61.0,84,29.73,5.0,South,13.8,20.7,N/A,,Haze,190,2012-10-14 13:53:00
10:07 AM,66.2,60.8,83,29.72,5.0,South,11.5,21.9,N/A,,Haze,180,2012-10-14 14:07:00
10:53 AM,66.9,61.0,81,29.68,6.0,South,17.3,31.1,N/A,,Haze,180,2012-10-14 14:53:00
11:53 AM,66.9,60.1,79,29.64,8.0,South,16.1,26.5,N/A,,Mostly Cloudy,180,2012-10-14 15:53:00
12:36 PM,66.2,60.8,83,29.65,8.0,South,18.4,31.1,0.00,Rain,Light Rain,190,2012-10-14 16:36:00
12:53 PM,66.0,59.0,78,29.64,9.0,South,17.3,25.3,0.00,,Overcast,190,2012-10-14 16:53:00
1:53 PM,68.0,59.0,73,29.61,10.0,South,18.4,28.8,N/A,,Mostly Cloudy,190,2012-10-14 17:53:00
2:53 PM,69.1,57.9,68,29.57,10.0,South,15.0,25.3,N/A,,Scattered Clouds,190,2012-10-14 18:53:00
3:53 PM,69.8,57.2,64,29.54,10.0,South,19.6,33.4,N/A,,Mostly Cloudy,190,2012-10-14 19:53:00
4:53 PM,70.0,57.9,65,29.50,10.0,South,20.7,28.8,0.00,,Scattered Clouds,190,2012-10-14 20:53:00
5:53 PM,69.1,57.9,68,29.48,10.0,South,12.7,23.0,N/A,,Clear,190,2012-10-14 21:53:00
6:53 PM,66.9,57.0,70,29.47,10.0,South,9.2,17.3,N/A,,Clear,190,2012-10-14 22:53:00
7:53 PM,63.0,55.9,78,29.45,10.0,South,12.7,21.9,0.00,,Partly Cloudy,190,2012-10-14 23:53:00
8:53 PM,62.1,55.9,80,29.42,10.0,South,9.2,-,N/A,,Overcast,180,2012-10-15 00:53:00
9:53 PM,62.1,55.9,80,29.40,7.0,SW,16.1,31.1,0.01,Rain,Light Rain,220,2012-10-15 01:53:00
10:53 PM,62.1,55.0,78,29.39,10.0,SW,15.0,26.5,0.00,,Overcast,220,2012-10-15 02:53:00
11:13 PM,60.8,55.4,82,29.40,6.0,SW,15.0,24.2,0.01,Rain,Light Rain,220,2012-10-15 03:13:00
11:41 PM,57.2,55.4,94,29.43,2.5,WSW,15.0,23.0,0.04,Rain,Rain,240,2012-10-15 03:41:00
11:53 PM,57.9,55.0,90,29.43,3.0,West,11.5,-,0.07,Rain,Light Rain,260,2012-10-15 03:53:00